map of APL home
APL - Airport
Location
City:  Nampula, Nampula, Mozambique
Name:Nampula Airport
ICAO:FQNP
IATA:APL

Details
Type:Airport (Aerodrome, Airfield)
Use:Public/Civil
Latitude:1506'20"S (-15.105610)
Longitude:3916'54"E (39.281800)
Datum:WGS 1984
Elevation:1444 ft (440 m)
Variation:8.40W (WMM2015v2 magnetic declination)
-0.06 annual change
Runways:2
Longest:6562 × 148 ft (2000 × 45 m), paved

Time
Time Zone:UTC+2
Local Time:

Weather
METAR:FQNP 041400Z 08007KT 9999 BKN020 30/23 Q1011
TAF:FQNP 041000Z 0412/0518 08008KT 9999 SCT020 FEW025CB TX32/0413Z TN23/0503Z PROB30
TEMPO 0412/0418 5000 -TSRA SCT015 FEW020CB
BECMG 0418/0420 17008KT SCT020
BECMG 0506/0508 VRB03KT
BECMG 0512/0514 02007KT

Related Locations
Nearby:
Farthest:ITO: 11449 mi / 18426 km
Hilo [Hilo Intl], Hawaii, HI, US

Find:

   beyond  
but within

Other Information
Maps:
NOTAMs:
Links:
Sources:

  
  • flag of Mozambique
  

Sectional Chart

Flight Planning
at skyvector.com

Satellite Image

Google Maps Satellite view

 

Copyright © 2004-2019 Karl L. Swartz. All rights reserved.
The Great Circle Mapper name and logo are trademarks of the Great Circle Mapper.
All other trademarks mentioned herein belong to their respective owners.
Please see credits for attibutions and further copyright information.

  Follow gcmap on Facebook Follow gcmap on Twitter GCmap on LinkedIn

hCard Microformat

Geo Microformat